User: anonymous   Login
Location: Newark
(47.5000°N, 4.6167°E)
Time: 03:05:34
(UTC+00:00)
Language:

ISS - Orbit

View from above orbital plane
View from above orbital plane
View from above satellite
View from above satellite

Ground track
Ground track

The orbit data is extracted from the following two-line orbital elements,

1 25544U 98067A   22277.86708162 -.00007725  00000-0 -12886-3 0  9999
2 25544  51.6414 153.1895 0003354 262.7118 198.7148 15.49706243362197
Epoch (UTC): 04 October 2022 20:48:35
Eccentricity: 0.0003354
inclination: 51.6414°
perigee height: 415 km
apogee height: 420 km
right ascension of ascending node: 153.1895°
argument of perigee: 262.7118°
revolutions per day: 15.49706243
mean anomaly at epoch: 198.7148°
orbit number at epoch: 36219

The dashed part of the orbit path shows where the satellite is in the earth's shadow,  

DLR